Terug naar catalogus

FENGYUN 1C DEB

ActiefSSO
NORAD 37047·DEBRIS·🇨🇳 China

Gelanceerd May 10, 1999 vanaf Taiyuan Satellite Launch Center

Loading…

Volgende Passages (komende 24 uur)

TLE

VerouderendSource: Space-Track

Epoch: Sep 9, 2026, 08:49 UTC

1 37047U 99025EEF 26252.36769044  .00001983  00000-0  14600-2 0  9996
2 37047  99.1232 302.8174 0231909 207.8387 151.0200 13.84768631658277

Volg FENGYUN 1C DEB in realtime met AllMySat

Download on the App Store